Crookston, MN

2:43 PM CDT on June 26, 2017 (GMT -0500)
Crookston Municipal-Kirkwood

Weather History for KCKN - November, 2013

Change the Weather History Date:

Monday, November 11, 2013

  Actual Average Record
Temperature  
Mean Temperature 10 °F -  
Max Temperature 17 °F 34 °F 60 °F (2005)
Min Temperature 3 °F 19 °F 3 °F (2013)
Degree Days  
Heating Degree Days 55    
Moisture  
Dew Point 5 °F    
Average Humidity 76    
Maximum Humidity 92    
Minimum Humidity 63    
Precipitation  
Precipitation 0.00 in - - ()
Sea Level Pressure  
Sea Level Pressure 30.61 in    
Wind  
Wind Speed 12 mph (North)    
Max Wind Speed 21 mph    
Max Gust Speed 26 mph    
Visibility 10 miles    
Events Snow    
Averages and records for this station are not official NWS values.
T = Trace of Precipitation, MM = Missing Value Source: NWS Daily Summary

Daily Weather History Graph

Daily Weather History Graph

Search for Another Location

Airport or City:

Trip Planner

Search our weather history database for the weather conditions in past years. The results will help you decide how hot, cold, wet, or windy it might be!

Date:

Astronomy

Nov. 11, 2013 Rise Set
Actual Time 7:26 AM CST 4:53 PM CST
Civil Twilight 6:53 AM CST 5:27 PM CST
Nautical Twilight 6:16 AM CST 6:04 PM CST
Astronomical Twilight 5:39 AM CST 6:40 PM CST
Moon 1:58 PM CST (11/11) 12:46 AM CST (11/11)
Length of Visible Light 10h 33m
Length of Day
9h 26m
Waxing Gibbous, 66% of the Moon is Illuminated
Nov 11
Waxing Gibbous
Nov 17
Full
Nov 25
Last Quarter
Dec 2
New
Dec 9
First Quarter

Hourly Weather History & Observations

Time (CST) Temp. Windchill Dew Point Humidity Pressure Visibility Wind Dir Wind Speed Gust Speed Precip Events Conditions
12:14 AM 15.8 °F -0.2 °F 6.8 °F 68% 30.39 in 10.0 mi North 17.3 mph 24.2 mph N/A   Overcast
12:35 AM 15.8 °F -1.1 °F 6.8 °F 68% 30.40 in 10.0 mi North 19.6 mph 24.2 mph N/A   Overcast
12:54 AM 15.8 °F -0.6 °F 6.8 °F 68% 30.40 in 10.0 mi North 18.4 mph - N/A   Overcast
1:14 AM 15.8 °F -1.5 °F 6.8 °F 68% 30.40 in 10.0 mi North 20.7 mph - N/A   Overcast
1:35 AM 15.8 °F 0.3 °F 6.8 °F 68% 30.42 in 10.0 mi North 16.1 mph - N/A   Overcast
1:55 AM 14.0 °F -2.5 °F 6.8 °F 73% 30.42 in 10.0 mi North 17.3 mph 21.9 mph N/A   Overcast
2:14 AM 14.0 °F -1.4 °F 6.8 °F 73% 30.43 in 10.0 mi North 15.0 mph - N/A   Mostly Cloudy
2:35 AM 12.2 °F -1.8 °F 6.8 °F 79% 30.44 in 10.0 mi North 11.5 mph - N/A   Mostly Cloudy
2:54 AM 12.2 °F -0.2 °F 5.0 °F 73% 30.45 in 10.0 mi North 9.2 mph - N/A   Scattered Clouds
3:14 AM 10.4 °F 0.8 °F 6.8 °F 85% 30.45 in 10.0 mi NNE 5.8 mph - N/A   Mostly Cloudy
3:35 AM 12.2 °F -2.5 °F 6.8 °F 79% 30.45 in 10.0 mi North 12.7 mph - N/A   Overcast
3:54 AM 12.2 °F -2.5 °F 6.8 °F 79% 30.46 in 10.0 mi North 12.7 mph - N/A   Overcast
4:14 AM 12.2 °F -4.8 °F 6.8 °F 79% 30.46 in 10.0 mi North 17.3 mph 23.0 mph N/A   Overcast
4:35 AM 12.2 °F -6.3 °F 6.8 °F 79% 30.47 in 10.0 mi North 20.7 mph 26.5 mph N/A   Overcast
4:54 AM 12.2 °F -2.5 °F 5.0 °F 73% 30.49 in 10.0 mi North 12.7 mph - N/A   Scattered Clouds
5:15 AM 10.4 °F -2.4 °F 3.2 °F 73% 30.50 in 10.0 mi North 9.2 mph - N/A   Clear
5:35 AM 8.6 °F -5.5 °F 3.2 °F 79% 30.51 in 10.0 mi North 10.4 mph - N/A   Clear
5:54 AM 10.4 °F -3.3 °F 5.0 °F 79% 30.51 in 10.0 mi North 10.4 mph - N/A   Scattered Clouds
6:15 AM 10.4 °F -3.3 °F 5.0 °F 79% 30.51 in 10.0 mi North 10.4 mph - N/A   Scattered Clouds
6:35 AM 10.4 °F -2.4 °F 5.0 °F 79% 30.53 in 10.0 mi North 9.2 mph - N/A   Clear
6:54 AM 10.4 °F -3.3 °F 5.0 °F 79% 30.53 in 10.0 mi North 10.4 mph - N/A   Clear
7:15 AM 8.6 °F -4.7 °F 3.2 °F 79% 30.54 in 10.0 mi North 9.2 mph - N/A   Clear
7:35 AM 8.6 °F -4.7 °F 3.2 °F 79% 30.56 in 10.0 mi North 9.2 mph - N/A   Clear
7:54 AM 8.6 °F -2.6 °F 3.2 °F 79% 30.57 in 10.0 mi North 6.9 mph - N/A   Clear
8:15 AM 10.4 °F -1.5 °F 5.0 °F 79% 30.58 in 10.0 mi North 8.1 mph - N/A   Scattered Clouds
8:35 AM 10.4 °F 2.2 °F 5.0 °F 79% 30.59 in 10.0 mi NNE 4.6 mph - N/A   Scattered Clouds
8:54 AM 12.2 °F -1.0 °F 6.8 °F 79% 30.61 in 10.0 mi North 10.4 mph - N/A   Mostly Cloudy
9:14 AM 12.2 °F -0.2 °F 6.8 °F 79% 30.62 in 10.0 mi North 9.2 mph 16.1 mph N/A   Overcast
9:35 AM 12.2 °F -0.2 °F 6.8 °F 79% 30.63 in 10.0 mi North 9.2 mph 16.1 mph N/A   Overcast
9:54 AM 12.2 °F -0.2 °F 6.8 °F 79% 30.62 in 10.0 mi NNE 9.2 mph - N/A   Overcast
10:15 AM 14.0 °F 2.0 °F 6.8 °F 73% 30.63 in 10.0 mi North 9.2 mph - N/A Snow Light Snow
10:35 AM 15.8 °F 3.4 °F 6.8 °F 68% 30.64 in 10.0 mi North 10.4 mph 18.4 mph N/A   Mostly Cloudy
10:54 AM 15.8 °F 1.4 °F 6.8 °F 68% 30.64 in 10.0 mi North 13.8 mph - N/A   Scattered Clouds
11:15 AM 15.8 °F -0.6 °F 6.8 °F 68% 30.65 in 10.0 mi North 18.4 mph - N/A   Mostly Cloudy
11:34 AM 15.8 °F -0.2 °F 6.8 °F 68% 30.65 in 10.0 mi North 17.3 mph 21.9 mph N/A   Overcast
11:54 AM 15.8 °F 1.4 °F 6.8 °F 68% 30.65 in 10.0 mi North 13.8 mph - N/A   Overcast
12:15 PM 15.8 °F 1.4 °F 6.8 °F 68% 30.65 in 10.0 mi North 13.8 mph - N/A   Overcast
12:34 PM 15.8 °F 0.9 °F 6.8 °F 68% 30.65 in 10.0 mi NNW 15.0 mph 23.0 mph N/A   Overcast
12:55 PM 15.8 °F 2.7 °F 6.8 °F 68% 30.66 in 10.0 mi North 11.5 mph - N/A   Mostly Cloudy
1:15 PM 15.8 °F 2.1 °F 6.8 °F 68% 30.67 in 10.0 mi North 12.7 mph - N/A   Overcast
1:34 PM 15.8 °F 0.9 °F 6.8 °F 68% 30.67 in 10.0 mi North 15.0 mph 21.9 mph N/A   Overcast
1:55 PM 17.6 °F 2.7 °F 6.8 °F 63% 30.67 in 10.0 mi North 16.1 mph 19.6 mph N/A   Mostly Cloudy
2:15 PM 15.8 °F 2.1 °F 6.8 °F 68% 30.67 in 10.0 mi NNW 12.7 mph - N/A   Overcast
2:34 PM 15.8 °F 2.1 °F 8.6 °F 73% 30.67 in 10.0 mi North 12.7 mph - N/A   Overcast
2:55 PM 15.8 °F 0.9 °F 6.8 °F 68% 30.67 in 10.0 mi NNW 15.0 mph - N/A   Overcast
3:14 PM 17.6 °F 3.7 °F 8.6 °F 68% 30.68 in 10.0 mi North 13.8 mph - N/A   Overcast
3:34 PM 15.8 °F 2.7 °F 6.8 °F 68% 30.68 in 10.0 mi NNW 11.5 mph - N/A   Overcast
3:55 PM 15.8 °F 2.7 °F 6.8 °F 68% 30.68 in 10.0 mi NNW 11.5 mph - N/A   Mostly Cloudy
4:14 PM 15.8 °F 5.1 °F 6.8 °F 68% 30.68 in 10.0 mi NNW 8.1 mph - N/A   Scattered Clouds
4:34 PM 14.0 °F 2.9 °F 6.8 °F 73% 30.69 in 10.0 mi NNW 8.1 mph - N/A   Clear
4:55 PM 12.2 °F 2.9 °F 5.0 °F 73% 30.70 in 10.0 mi North 5.8 mph - N/A   Clear
5:14 PM 10.4 °F 0.8 °F 3.2 °F 73% 30.70 in 10.0 mi NNW 5.8 mph - N/A   Clear
5:34 PM 10.4 °F 4.0 °F 5.0 °F 79% 30.72 in 10.0 mi North 3.5 mph - N/A   Clear
5:55 PM 10.4 °F - 5.0 °F 79% 30.72 in 10.0 mi Calm Calm - N/A   Clear
6:14 PM 10.4 °F - 5.0 °F 79% 30.73 in 10.0 mi Calm Calm - N/A   Clear
6:34 PM 8.6 °F - 1.4 °F 73% 30.72 in 10.0 mi Calm Calm - N/A   Clear
6:55 PM 8.6 °F - 3.2 °F 79% 30.73 in 10.0 mi Calm Calm - N/A   Clear
7:14 PM 5.0 °F - 1.4 °F 85% 30.73 in 7.0 mi Calm Calm - N/A   Clear
7:35 PM 5.0 °F -2.1 °F -0.4 °F 78% 30.73 in 10.0 mi SW 3.5 mph - N/A   Clear
7:54 PM 6.8 °F -2.0 °F 1.4 °F 79% 30.73 in 10.0 mi SW 4.6 mph - N/A   Clear
8:14 PM 3.2 °F -6.2 °F -0.4 °F 85% 30.73 in 10.0 mi SSW 4.6 mph - N/A   Clear
8:35 PM 6.8 °F -0.1 °F 1.4 °F 79% 30.73 in 10.0 mi SSW 3.5 mph - N/A   Clear
8:54 PM 6.8 °F -0.1 °F 1.4 °F 79% 30.74 in 10.0 mi SSW 3.5 mph - N/A   Clear
9:15 PM 3.2 °F -6.2 °F -0.4 °F 85% 30.73 in 10.0 mi SSW 4.6 mph - N/A   Clear
9:34 PM 3.2 °F -4.2 °F 1.4 °F 92% 30.74 in 10.0 mi SSW 3.5 mph - N/A   Clear
9:54 PM 5.0 °F - 1.4 °F 85% 30.74 in 10.0 mi Calm Calm - N/A   Clear
10:15 PM 5.0 °F -2.1 °F 1.4 °F 85% 30.74 in 10.0 mi South 3.5 mph - N/A   Clear
10:34 PM 3.2 °F -6.2 °F 1.4 °F 92% 30.74 in 10.0 mi South 4.6 mph - N/A   Clear
10:54 PM 3.2 °F -7.8 °F -0.4 °F 85% 30.74 in 10.0 mi SSW 5.8 mph - N/A   Clear
11:15 PM 3.2 °F -7.8 °F -0.4 °F 85% 30.72 in 10.0 mi South 5.8 mph - N/A   Clear
11:34 PM 3.2 °F -7.8 °F 1.4 °F 92% 30.73 in 10.0 mi SSW 5.8 mph - N/A   Clear
11:54 PM 5.0 °F -5.6 °F -0.4 °F 78% 30.73 in 10.0 mi SSW 5.8 mph - N/A   Clear